This demonstration page uses our WeatherBlox Daily Observations layout. Learn more.

Left ArrowRight Arrow

31.84235, -102.49876

Hourly Observations for May 6, 2022

Temp ( °F °C ) Dew Point ( °F °C ) Humidity (%) Winds ( mph kmh ) Pressure ( in mb ) Visibility ( mi km ) Precip ( " mm )
12:53 am 00:53 Clear 69 20.6 20 -6.7 15 15 ESE 7 11 29.84 1011 10 16 0.00 0.00
1:53 am 01:53 Clear 64 17.8 22 -5.6 20 20 SE 5 7 29.85 1011 10 16 0.00 0.00
2:53 am 02:53 Clear 65 18.3 22 -5.6 19 19 S 10 17 29.83 1010 10 16 0.00 0.00
3:53 am 03:53 Clear 63 17.2 21 -6.1 20 20 SW 6 9 29.82 1010 10 16 0.00 0.00
4:53 am 04:53 Clear 60 15.6 21 -6.1 22 22 SW 5 7 29.82 1010 10 16 0.00 0.00
5:53 am 05:53 Clear 60 15.6 24 -4.4 25 25 WSW 5 7 29.82 1010 10 16 0.00 0.00
6:53 am 06:53 Clear 59 15 26 -3.3 28 28 SW 5 7 29.82 1010 10 16 0.00 0.00
7:53 am 07:53 Sunny 63 17.2 28 -2.2 27 27 SSW 8 13 29.84 1011 10 16 0.00 0.00
8:53 am 08:53 Sunny 71 21.7 28 -2.2 20 20 SW 13 20 29.85 1011 10 16 0.00 0.00
9:53 am 09:53 Sunny 79 26.1 28 -2.2 15 15 SSW 17 28 29.85 1011 10 16 0.00 0.00
10:53 am 10:53 Sunny 84 28.9 25 -3.9 11 11 SW 14 22 29.84 1010 10 16 0.00 0.00
11:53 am 11:53 Sunny 88 31.1 21 -6.1 8 8 SW 16 26 29.83 1010 10 16 0.00 0.00
12:53 pm 12:53 Sunny 92 33.3 18 -7.8 6 6 WSW 18 30 29.80 1009 10 16 0.00 0.00
1:53 pm 13:53 Sunny 94 34.4 18 -7.8 6 6 W 13 20 29.78 1008 10 16 0.00 0.00
2:05 pm 14:05 Sunny 94 34.4 18 -7.8 6 6 WSW 16 26 29.66 1004 10 16 0.00 0.00
2:53 pm 14:53 Sunny 97 36.1 17 -8.3 5 5 WNW 17 28 29.75 1008 10 16 0.00 0.00
3:53 pm 15:53 Sunny 97 36.1 16 -8.9 5 5 W 15 24 29.73 1007 10 16 0.00 0.00
4:53 pm 16:53 Sunny 97 36.1 16 -8.9 5 5 W 12 19 29.71 1006 10 16 0.00 0.00
5:53 pm 17:53 Sunny 97 36.1 16 -8.9 5 5 WNW 17 28 29.69 1006 10 16 0.00 0.00
6:53 pm 18:53 Sunny 96 35.6 15 -9.4 5 5 WNW 10 17 29.69 1005 10 16 0.00 0.00
7:53 pm 19:53 Sunny 92 33.3 14 -10 5 5 W 8 13 29.69 1005 10 16 0.00 0.00
8:53 pm 20:53 Clear 87 30.6 15 -9.4 7 7 W 3 6 29.70 1006 10 16 0.00 0.00
9:53 pm 21:53 Clear 85 29.4 15 -9.4 7 7 SW 5 7 29.70 1006 9 14 0.00 0.00
10:53 pm 22:53 Clear 80 26.7 18 -7.8 10 10 SSW 5 7 29.71 1006 10 16 0.00 0.00
11:53 pm 23:53 Clear 78 25.6 17 -8.3 10 10 WSW 3 6 29.70 1006 10 16 0.00 0.00

Powered by AerisWeather